Retour au catalogue

STARLINK-32245

ActifCommunicationsVLEO
NORAD 62133·PAYLOAD·🇺🇸 United States

Lancé Nov 27, 2024 depuis Cape Canaveral Space Force Station

Loading…

Prochains Passages (prochaines 24 heures)

TLE

FraisSource: CelesTrak SupGP

Époque: Sep 15, 2026, 03:12 UTC

1 62133C 24222V   26258.13381944  .00040809  00000+0  14781-2 0  2584
2 62133  43.0029 146.3644 0001349 271.1582   4.2116 15.27558936    12

Suivez STARLINK-32245 en temps réel avec AllMySat

Download on the App Store